Change the Weather History Date:

Tuesday, January 7, 2014

  Actual Average Record
Temperature  
Mean Temperature -7 °F 26 °F  
Max Temperature -1 °F 32 °F 64 °F (2008)
Min Temperature -14 °F 19 °F -14 °F (2014)
Degree Days  
Heating Degree Days 72 39  
Month to date heating degree days 384 273  
Since 1 July heating degree days 2863 2570  
Cooling Degree Days 0 0  
Month to date cooling degree days 0 0  
Year to date cooling degree days 0 0  
Moisture  
Dew Point -14 °F    
Average Humidity 71    
Maximum Humidity 78    
Minimum Humidity 64    
Precipitation  
Precipitation 0.00 in 0.07 in 0.69 in (1998)
Month to date precipitation 1.42 0.50  
Year to date precipitation 1.42 0.50  
Snow  
Snow 0.00 in 0.40 in 4.30 in (2010)
Month to date snowfall 21.8 2.8  
Since 1 July snowfall 38.5 14.0  
Snow Depth 16.00 in    
Sea Level Pressure  
Sea Level Pressure 30.28 in    
Wind  
Wind Speed 19 mph (SSW)    
Max Wind Speed 26 mph    
Max Gust Speed 32 mph    
Visibility 9 miles    
Events      
T = Trace of Precipitation, MM = Missing Value Source: NWS Daily Summary

Daily Weather History Graph

Daily Weather History Graph

Search for Another Location

Airport or City:

Trip Planner

Search our weather history database for the weather conditions in past years. The results will help you decide how hot, cold, wet, or windy it might be!

Date:

Astronomy

Jan. 07, 2014 Rise Set
Actual Time 8:01 AM EST 5:17 PM EST
Civil Twilight 7:30 AM EST 5:49 PM EST
Nautical Twilight 6:55 AM EST 6:24 PM EST
Astronomical Twilight 6:21 AM EST 6:57 PM EST
Moon 11:41 AM EST (1/7) No Moon Set
Length of Visible Light 10h 18m
Length of Day
9h 15m
Waxing Crescent, 45% of the Moon is Illuminated
Jan 7
Waxing Crescent
Jan 7
First Quarter
Jan 15
Full
Jan 24
Last Quarter
Jan 30
New

Hourly Weather History & Observations

Time (EST) Temp. Windchill Dew Point Humidity Pressure Visibility Wind Dir Wind Speed Gust Speed Precip Events Conditions
12:53 AM -14.1 °F -40.2 °F -20.9 °F 71% 30.16 in 8.0 mi SSW 19.6 mph 27.6 mph N/A   Clear
1:53 AM -14.1 °F -41.4 °F -20.9 °F 71% 30.17 in 9.0 mi SW 21.9 mph 27.6 mph N/A   Clear
2:53 AM -13.0 °F -38.8 °F -20.9 °F 68% 30.19 in 9.0 mi SSW 19.6 mph - N/A   Clear
3:53 AM -13.0 °F -38.8 °F -20.0 °F 71% 30.20 in 10.0 mi SSW 19.6 mph - N/A   Partly Cloudy
4:53 AM -13.0 °F -39.4 °F -20.0 °F 71% 30.20 in 10.0 mi SSW 20.7 mph - N/A   Scattered Clouds
5:53 AM -13.0 °F -38.8 °F -20.0 °F 71% 30.22 in 9.0 mi SSW 19.6 mph - N/A   Scattered Clouds
6:53 AM -13.0 °F -38.8 °F -20.0 °F 71% 30.23 in 9.0 mi SSW 19.6 mph - N/A   Partly Cloudy
7:53 AM -11.9 °F -36.8 °F -18.9 °F 71% 30.25 in 9.0 mi SSW 18.4 mph - N/A   Clear
8:53 AM -11.0 °F -35.6 °F -17.0 °F 75% 30.26 in 9.0 mi SSW 18.4 mph 28.8 mph N/A   Clear
9:53 AM -9.0 °F -33.6 °F -16.1 °F 71% 30.28 in 8.0 mi SSW 19.6 mph 28.8 mph N/A   Clear
10:53 AM -7.1 °F -33.2 °F -15.0 °F 68% 30.32 in 9.0 mi SSW 24.2 mph 31.1 mph N/A   Scattered Clouds
11:53 AM -6.0 °F -30.2 °F -14.1 °F 68% 30.30 in 9.0 mi SW 20.7 mph 31.1 mph N/A   Mostly Cloudy
12:53 PM -2.9 °F -26.7 °F -11.9 °F 65% 30.27 in 9.0 mi SW 21.9 mph - N/A   Mostly Cloudy
1:53 PM -2.0 °F -25.0 °F -11.9 °F 63% 30.27 in 9.0 mi SW 20.7 mph 31.1 mph N/A   Mostly Cloudy
2:53 PM -2.0 °F -26.4 °F -11.0 °F 66% 30.28 in 9.0 mi SSW 24.2 mph 29.9 mph N/A   Mostly Cloudy
3:53 PM -2.0 °F -23.9 °F -11.0 °F 66% 30.30 in 9.0 mi SSW 18.4 mph - N/A   Mostly Cloudy
4:53 PM -2.9 °F -25.6 °F -11.0 °F 68% 30.31 in 9.0 mi SSW 19.6 mph - N/A   Mostly Cloudy
5:14 PM -2.2 °F -25.2 °F -11.2 °F 66% 30.25 in 10.0 mi SSW 20.7 mph - N/A   Overcast
5:27 PM -2.2 °F -25.2 °F -11.2 °F 66% 30.25 in 10.0 mi SSW 20.7 mph 29.9 mph N/A   Mostly Cloudy
5:53 PM -2.9 °F -24.4 °F -11.0 °F 68% 30.31 in 10.0 mi SSW 17.3 mph - N/A   Mostly Cloudy
6:53 PM -2.9 °F -24.4 °F -11.0 °F 68% 30.32 in 10.0 mi SSW 17.3 mph - N/A   Scattered Clouds
7:53 PM -2.0 °F -23.3 °F -11.0 °F 66% 30.34 in 10.0 mi SSW 17.3 mph - N/A   Scattered Clouds
8:53 PM -0.9 °F -21.2 °F -9.9 °F 66% 30.37 in 10.0 mi SSW 16.1 mph - N/A   Mostly Cloudy
9:13 PM -0.4 °F -21.2 °F -9.4 °F 66% 30.31 in 10.0 mi SSW 17.3 mph - N/A   Mostly Cloudy
9:53 PM -0.9 °F -20.6 °F -9.0 °F 69% 30.39 in 10.0 mi SSW 15.0 mph - N/A   Overcast
10:53 PM -0.9 °F -18.3 °F -9.0 °F 69% 30.39 in 10.0 mi SSW 11.5 mph - N/A   Overcast
11:53 PM -0.9 °F -19.9 °F -8.0 °F 72% 30.39 in 10.0 mi SSW 13.8 mph - N/A   Overcast